This demonstration page uses our WeatherBlox Daily Observations layout. Learn more.

Hourly Observations for June 7, 2019

Temp ( °F °C ) Dew Point ( °F °C ) Humidity (%) Winds ( mph kmh ) Pressure ( in mb ) Visibility ( mi km ) Precip ( " mm )
12:15 am 00:15 Clear 67 19.2 61 16.2 83 83 SSE 3 6 29.83 1010 10 16.09344 0 0
12:35 am 00:35 Clear 65 18.5 61 16 85 85 Calm 29.85 1011 10 16.09344 0 0
12:55 am 00:55 Clear 63 17.3 61 16.2 93 93 Calm 29.85 1011 10 16.09344 0 0
1:15 am 01:15 Clear 63 17.4 61 16 92 92 Calm 29.85 1011 10 16.09344 0 0
1:35 am 01:35 Clear 63 17 61 15.9 93 93 Calm 29.85 1011 10 16.09344 0 0
1:55 am 01:55 Clear 63 17.4 61 15.9 91 91 Calm 29.85 1011 10 16.09344 0 0
2:15 am 02:15 Clear 61 16.2 60 15.6 96 96 Calm 29.85 1011 10 16.09344 0 0
2:35 am 02:35 Clear 60 15.6 59 15 96 96 Calm 29.85 1011 10 16.09344 0 0
2:55 am 02:55 Clear 61 15.9 60 15.4 97 97 Calm 29.85 1011 10 16.09344 0 0
3:15 am 03:15 Clear 60 15.4 59 15.2 99 99 Calm 29.88 1012 7 11.265408 0 0
3:35 am 03:35 Clear 59 15.2 59 15.2 100 100 Calm 29.88 1012 7 11.265408 0 0
3:55 am 03:55 Clear 60 15.5 60 15.3 99 99 Calm 29.88 1012 7 11.265408 0 0
4:15 am 04:15 Clear with Mist and Fog 58 14.5 58 14.5 100 100 Calm 29.88 1012 5 8.04672 0 0
4:30 am 04:30 Clear 59 15 59 14.9 99 99 Calm 29.88 1012 7 11.265408 0 0
4:55 am 04:55 Clear 59 15 59 15 100 100 Calm 29.88 1012 7 11.265408 0 0
5:15 am 05:15 Clear 58 14.5 58 14.5 100 100 ESE 3 6 29.88 1012 7 11.265408 0 0
5:35 am 05:35 Clear with Mist and Fog 58 14.3 58 14.3 100 100 Calm 29.88 1012 5 8.04672 0 0
5:55 am 05:55 Clear with Mist and Fog 57 14.1 57 14.1 100 100 Calm 29.88 1012 3 4.828032 0 0
6:15 am 06:15 Sunny with Mist and Fog 57 13.9 57 13.9 100 100 Calm 29.88 1012 2 3.218688 0 0
6:35 am 06:35 Sunny with Mist and Fog 56 13.6 56 13.6 100 100 Calm 29.88 1012 2.5 4.02336 0 0
6:55 am 06:55 Sunny with Mist and Fog 58 14.6 58 14.5 99 99 Calm 29.88 1012 4 6.437376 0 0
7:15 am 07:15 Sunny with Mist and Fog 60 15.8 60 15.8 100 100 Calm 29.85 1011 4 6.437376 0 0
7:35 am 07:35 Sunny with Mist and Fog 64 17.6 63 17.1 97 97 Calm 29.85 1011 4 6.437376 0 0
7:55 am 07:55 Sunny 66 19.1 63 17.4 90 90 Calm 29.83 1010 10 16.09344 0 0
8:15 am 08:15 Sunny 69 20.3 64 17.8 86 86 Calm 29.83 1010 10 16.09344 0 0
8:35 am 08:35 Sunny 71 21.5 64 17.7 79 79 Calm 29.83 1010 10 16.09344 0 0
8:55 am 08:55 Sunny 72 22.3 64 17.9 76 76 SSE 3 6 29.83 1010 10 16.09344 0 0
9:15 am 09:15 Sunny 74 23.4 65 18.2 73 73 S 5 7 29.8 1009 10 16.09344 0 0
9:35 am 09:35 Sunny 75 24.1 64 18 69 69 S 8 13 29.8 1009 10 16.09344 0 0
9:55 am 09:55 Sunny 76 24.5 64 17.9 67 67 S 12 19 29.8 1009 10 16.09344 0 0
10:15 am 10:15 Sunny 77 24.8 65 18.5 68 68 S 9 15 29.8 1009 10 16.09344 0 0
10:35 am 10:35 Sunny 77 24.8 64 17.7 65 65 S 10 17 29.8 1009 10 16.09344 0 0
10:55 am 10:55 Sunny 77 25.2 64 17.7 63 63 SSE 13 20 29.8 1009 10 16.09344 0 0
11:15 am 11:15 Sunny 78 25.5 64 17.9 63 63 S 13 20 29.8 1009 10 16.09344 0 0
11:35 am 11:35 Sunny 78 25.6 64 17.5 61 61 S 9 15 29.8 1009 10 16.09344 0 0
11:55 am 11:55 Sunny 78 25.8 64 17.9 62 62 S 10 17 29.8 1009 10 16.09344 0 0
12:15 pm 12:15 Sunny 79 26.1 64 17.5 59 59 S 10 17 29.77 1008 10 16.09344 0 0
12:35 pm 12:35 Sunny 80 26.4 63 17 56 56 S 14 22 29.77 1008 10 16.09344 0 0
12:55 pm 12:55 Sunny 80 26.5 62 16.9 56 56 S 15 24 29.77 1008 10 16.09344 0 0
1:15 pm 13:15 Sunny 80 26.9 62 16.6 53 53 S 14 22 29.77 1008 10 16.09344 0 0
1:35 pm 13:35 Sunny 81 27.1 60 15.7 50 50 S 14 22 29.77 1008 10 16.09344 0 0
1:55 pm 13:55 Sunny 81 27.4 61 16 50 50 S 15 24 29.74 1007 10 16.09344 0 0
2:15 pm 14:15 Sunny 82 27.5 61 15.9 49 49 S 13 20 29.74 1007 10 16.09344 0 0
2:35 pm 14:35 Sunny 82 27.8 62 16.6 51 51 SSW 14 22 29.74 1007 10 16.09344 0 0
2:55 pm 14:55 Sunny 82 27.6 60 15.5 48 48 S 9 15 29.74 1007 10 16.09344 0 0
3:15 pm 15:15 Sunny 82 28 60 15.8 47 47 SSE 13 20 29.71 1006 10 16.09344 0 0
3:35 pm 15:35 Sunny 83 28.1 62 16.4 49 49 S 12 19 29.71 1006 10 16.09344 0 0
3:55 pm 15:55 Sunny 83 28.1 62 16.4 49 49 S 14 22 29.71 1006 10 16.09344 0 0
4:15 pm 16:15 Sunny 82 28 62 16.4 49 49 S 12 19 29.71 1006 10 16.09344 0 0
4:35 pm 16:35 Sunny 83 28.1 60 15.8 47 47 S 15 24 29.71 1006 10 16.09344 0 0
4:55 pm 16:55 Sunny 82 28 61 16 48 48 S 16 26 29.71 1006 10 16.09344 0 0
5:15 pm 17:15 Sunny 83 28.1 60 15.8 47 47 S 17 28 29.68 1005 10 16.09344 0 0
5:35 pm 17:35 Sunny 82 27.9 59 15.2 46 46 SSW 13 20 29.68 1005 10 16.09344 0 0
5:55 pm 17:55 Sunny 82 27.8 60 15.5 47 47 S 13 20 29.68 1005 10 16.09344 0 0
6:15 pm 18:15 Sunny 82 27.6 60 15.4 47 47 S 15 24 29.68 1005 10 16.09344 0 0
6:35 pm 18:35 Sunny 82 27.5 60 15.4 48 48 S 16 26 29.68 1005 10 16.09344 0 0
6:55 pm 18:55 Sunny 81 27.1 61 16.3 52 52 S 13 20 29.68 1005 10 16.09344 0 0
7:15 pm 19:15 Sunny 80 26.9 61 15.9 51 51 S 14 22 29.68 1005 10 16.09344 0 0
7:35 pm 19:35 Sunny 80 26.5 60 15.8 52 52 S 15 24 29.68 1005 10 16.09344 0 0
7:55 pm 19:55 Sunny 79 26.3 60 15.4 51 51 SSE 14 22 29.68 1005 10 16.09344 0 0
8:15 pm 20:15 Sunny 77 24.9 61 16 58 58 S 10 17 29.71 1006 10 16.09344 0 0
8:35 pm 20:35 Sunny 76 24.4 60 15.6 58 58 SSE 10 17 29.71 1006 10 16.09344 0 0
8:55 pm 20:55 Sunny 74 23.5 60 15.6 61 61 SSE 10 17 29.71 1006 10 16.09344 0 0
9:15 pm 21:15 Clear 74 23.1 60 15.7 63 63 SSE 9 15 29.74 1007 10 16.09344 0 0
9:35 pm 21:35 Clear 72 22.2 60 15.8 67 67 SSE 8 13 29.74 1007 10 16.09344 0 0
9:55 pm 21:55 Clear 72 22 60 15.8 68 68 SSE 9 15 29.74 1007 10 16.09344 0 0
10:15 pm 22:15 Clear 72 22 60 15.8 68 68 SSE 9 15 29.8 1009 10 16.09344 0 0
10:35 pm 22:35 Clear 71 21.5 60 15.8 70 70 SSE 9 15 29.8 1009 10 16.09344 0 0
10:55 pm 22:55 Clear 69 20.7 61 16 75 75 SSE 8 13 29.83 1010 10 16.09344 0 0
11:15 pm 23:15 Clear 69 20.6 61 15.9 75 75 SSE 10 17 29.8 1009 10 16.09344 0 0
11:35 pm 23:35 Clear 70 21 60 15.6 71 71 SSE 10 17 29.8 1009 10 16.09344 0 0
11:55 pm 23:55 Clear 69 20.6 60 15.6 73 73 SSE 10 17 29.8 1009 10 16.09344 0 0

Powered by AerisWeather